User: anonymous   Login
Location: Buchloe
(48.0161°N, 10.7316°E)
Time: 18:23:48
(UTC+02:00)
Language:

ISS - Orbit

View from above orbital plane
View from above orbital plane
View from above satellite
View from above satellite

Ground track
Ground track

The orbit data is extracted from the following two-line orbital elements,

1 25544U 98067A   21270.51868807 -.00008267  00000-0 -14273-3 0  9990
2 25544  51.6449 196.7554 0003978  30.7237 136.0599 15.48857870304459
Epoch (UTC): 27 September 2021 12:26:54
Eccentricity: 0.0003978
inclination: 51.6449°
perigee height: 417 km
apogee height: 423 km
right ascension of ascending node: 196.7554°
argument of perigee: 30.7237°
revolutions per day: 15.48857870
mean anomaly at epoch: 136.0599°
orbit number at epoch: 30445

The dashed part of the orbit path shows where the satellite is in the earth's shadow,  

DLR